• Processing (Info)

  • MPEC 2013-T09 : 2013 TE

    The following Minor Planet Electronic Circular may be linked-to from your own Web pages, but must not otherwise be redistributed electronically.

    A form allowing access to any MPEC is at the bottom of this page.


    Read MPEC 2013-T08 Read MPEC 2013-T10


    M.P.E.C. 2013-T09                                Issued 2013 Oct. 2, 20:02 UT
    
         The Minor Planet Electronic Circulars contain information on unusual
             minor planets and routine data on comets.  They are published
       on behalf of Commission 20 of the International Astronomical Union by the
              Minor Planet Center, Smithsonian Astrophysical Observatory,
                              Cambridge, MA 02138, U.S.A.
    
                 Prepared using the Tamkin Foundation Computer Network
    
                                  MPC@CFA.HARVARD.EDU
                URL https://www.minorplanetcenter.net/    ISSN 1523-6714
    
                                        2013 TE
    
    Observations:
         K13T00E* C2013 10 01.31219 23 55 52.81 +25 34 51.2          18.7 VqET009703
         K13T00E  C2013 10 01.31767 23 55 53.47 +25 34 36.0          19.3 VqET009703
         K13T00E  C2013 10 01.32319 23 55 54.13 +25 34 19.5          18.7 VqET009703
         K13T00E  C2013 10 01.32870 23 55 54.91 +25 34 04.4          18.8 VqET009703
         K13T00E  C2013 10 01.35341 23 55 57.80 +25 32 53.8          18.9 VqET009703
         K13T00E  C2013 10 01.35441 23 55 57.96 +25 32 51.3          19.2 VqET009703
         K13T00E  C2013 10 01.35538 23 55 58.05 +25 32 48.9          19.0 VqET009703
         K13T00E  C2013 10 01.35639 23 55 58.18 +25 32 45.2          19.1 VqET009703
         K13T00E  C2013 10 01.49691 23 56 18.85 +25 26 04.0          19.0 RoET009300
         K13T00E  C2013 10 01.49938 23 56 19.22 +25 25 56.1          19.2 RoET009300
         K13T00E  C2013 10 01.50432 23 56 19.79 +25 25 43.0          19.2 RoET009300
         K13T00E  C2013 10 01.50678 23 56 20.07 +25 25 35.4          19.3 RoET009300
         K13T00E KC2013 10 01.78198 23 56 57.02 +25 12 16.3          19.5 RqET009113
         K13T00E KC2013 10 01.78674 23 56 57.68 +25 12 03.1          19.4 RqET009113
         K13T00E KC2013 10 01.79148 23 56 58.24 +25 11 48.7          19.1 RqET009113
         K13T00E KC2013 10 01.79624 23 56 58.88 +25 11 34.9          19.3 RqET009113
         K13T00E  C2013 10 01.80660 23 57 00.13 +25 11 07.6          18.5 RvET009461
         K13T00E  C2013 10 01.80825 23 57 00.35 +25 11 03.0          18.5 RvET009461
         K13T00E  C2013 10 01.80987 23 57 00.52 +25 10 58.7          18.8 RvET009461
         K13T00E  C2013 10 01.81149 23 57 00.75 +25 10 53.7          18.4 RvET009461
         K13T00E KC2013 10 01.85313 23 57 06.08 +25 08 52.1          20.0 VqET009C43
         K13T00E KC2013 10 01.85834 23 57 06.75 +25 08 36.8          19.6 VqET009C43
         K13T00E KC2013 10 02.06258923 57 32.84 +24 58 39.9                uET009510
         K13T00E KC2013 10 02.07437723 57 34.33 +24 58 05.1          19.9 VuET009510
         K13T00E KC2013 10 02.08616723 57 35.87 +24 57 30.1          19.8 VuET009510
         K13T00E  C2013 10 02.08670 23 57 38.80 +24 57 34.2          18.9 RuET009G48
         K13T00E  C2013 10 02.09017 23 57 39.14 +24 57 25.1          19.1 RuET009G48
         K13T00E  C2013 10 02.09186 23 57 39.29 +24 57 19.9          18.8 RuET009G48
         K13T00E KC2013 10 02.09459623 57 39.23 +24 57 11.1          19.6 VuET009H21
         K13T00E KC2013 10 02.09613223 57 39.43 +24 57 06.7          19.8 VuET009H21
         K13T00E KC2013 10 02.09802423 57 39.67 +24 57 01.3          19.7 VuET009H21
         K13T00E KC2013 10 02.09967423 57 39.88 +24 56 56.5          19.9 VuET009H21
         K13T00E KC2013 10 02.10155423 57 40.12 +24 56 51.3          19.8 VuET009H21
         K13T00E !C2013 10 02.16245 23 57 48.63 +24 53 53.7          16.9 RtET009673
         K13T00E !C2013 10 02.17409 23 57 50.13 +24 53 19.0          17.3 RtET009673
         K13T00E KC2013 10 02.17690 23 57 49.81 +24 53 11.8          19.6 RqET009H36
         K13T00E KC2013 10 02.18157 23 57 50.43 +24 52 57.7          19.4 RqET009H36
         K13T00E KC2013 10 02.18650 23 57 51.01 +24 52 43.1          19.6 RqET009H36
         K13T00E KC2013 10 02.22703 23 57 56.49 +24 50 46.6          19.9 RqET009448
         K13T00E KC2013 10 02.24008 23 57 58.16 +24 50 09.6          20.1 RqET009448
         K13T00E KC2013 10 02.24931 23 57 59.25 +24 49 41.9          20.0 RqET009448
         K13T00E  C2013 10 02.34878 23 58 11.84 +24 44 45.8          19.5 RcET009854
         K13T00E  C2013 10 02.35769 23 58 12.97 +24 44 19.3          19.5 RcET009854
         K13T00E  C2013 10 02.36660 23 58 13.89 +24 43 52.1          19.5 RcET009854
         K13T00E KC2013 10 02.76450 23 59 10.82 +24 23 47.1          18.8 RqET009113
         K13T00E KC2013 10 02.76713 23 59 11.19 +24 23 38.5          18.7 RqET009113
         K13T00E KC2013 10 02.76976 23 59 11.54 +24 23 31.0          18.8 RqET009113
         K13T00E KC2013 10 02.77239 23 59 11.88 +24 23 23.2          18.8 RqET009113
    
    Observer details:
    113 Volkssternwarte Drebach, Schoenbrunn.  Observers G. Lehmann, A. Knoefel,
        J. Kandler.  0.5-m f/4.6 reflector + CCD.
    300 Bisei Spaceguard Center--BATTeRS.  Observers A. Asami, T. Sakamoto.  1.0-m
        f/3.0 reflector + CCD.
    448 Desert Moon Observatory.  Observer B. L. Stevens.  0.3-m
        Schmidt-Cassegrain + CCD.
    461 University of Szeged, Piszkesteto Stn. (Konkoly).  Observer K. Sarneczky.
        0.60-m Schmidt + CCD.
    510 Siegen.  Observers M. Jung, K.-F. Osterhage, H. Bill.  Measurer H. Bill.
        0.43-m f/4.5 reflector + CCD.
    673 Table Mountain Observatory, Wrightwood.  Observer J. Pittichova.
    703 Catalina Sky Survey.  Observer R. E. Hill.  Measurers A. Boattini,
        E. J. Christensen, A. R. Gibbs, A. D. Grauer, R. E. Hill, J. A. Johnson,
        R. A. Kowalski, S. M. Larson, F. C. Shelly.  0.68-m Schmidt + CCD.
    854 Sabino Canyon Observatory, Tucson.  Observer J. E. McGaha.  0.36-m f/10.0
        Schmidt-Cassegrain + CCD.
    C43 Hoyerswerda.  Observer P. Lindner.  0.30-m f/6.3 Schmidt-Cassegrain + CCD.
    G48 Doc Greiner Research Obs., Rancho Hildalgo.  Observer M. Mills.  0.4-m
        f/10 Schmidt-Cassegrain + CCD.
    H21 Astronomical Research Observatory, Westfield.  Observer R. Holmes.
        Measurers T. Linder, S. Foglia, L. Buzzi, T. Vorobjov.  0.61-m f/4.5
        astrograph + CCD.
    H36 Sandlot Observatory, Scranton.  Observer G. Hug.  0.56-m reflector + CCD.
    
    Orbital elements:
    2013 TE                                                  Earth MOID = 0.2376 AU
    Epoch 2013 Nov. 4.0 TT = JDT 2456600.5                  MPC
    M   0.67891              (2000.0)            P               Q
    n   0.20389602     Peri.  190.55297     +0.82958333     -0.54177237
    a   2.8588863      Node   203.82630     +0.53358972     +0.84050498
    e   0.5701322      Incl.   19.55052     +0.16454027     +0.00583756
    P   4.83           H   20.7           G   0.15           U   8
    Residuals in seconds of arc
    131001 703  0.1-  0.1-    131001 461  0.1-  0.1+    131002 H21  0.1+  0.1+
    131001 703  0.1-  0.2+    131001 461  0.0   0.2+    131002 673  0.1+  0.1+
    131001 703  0.3-  0.6-    131001 461  0.5-  0.6+    131002 673  0.3+  0.8-
    131001 703  1.2+  0.0     131001 461  0.1-  0.2+    131002 H36  0.4-  0.3+
    131001 703  0.5-  0.0     131001 C43  0.4-  0.2+    131002 H36  0.1+  0.2-
    131001 703  0.0   0.4+    131001 C43  0.2-  0.1-    131002 H36  0.4-  0.3-
    131001 703  0.3-  0.8+    131002 510  0.4+  0.2-    131002 448  0.2+  0.7-
    131001 703  0.3-  0.0     131002 510  0.0   0.1-    131002 448  0.8+  0.7+
    131001 300  0.0   0.1+    131002 510  0.2+  0.0     131002 448  0.0   0.2+
    131001 300  0.9+  0.8-    131002 G48  1.1+  0.3-    131002 854  0.7+  0.0
    131001 300  0.3+  0.0     131002 G48  0.4-  0.6+    131002 854  0.8+  0.2+
    131001 300  0.0   0.7-    131002 G48  1.4-  0.3+    131002 854  2.0-  0.2-
    131001 113  0.3-  0.4+    131002 H21  0.1+  0.2-    131002 113  0.1-  0.4+
    131001 113  0.3+  0.7+    131002 H21  0.1+  0.2-    131002 113  0.1+  0.3-
    131001 113  0.4-  0.1-    131002 H21  0.1+  0.1-    131002 113  0.1+  0.0
    131001 113  0.0   0.3-    131002 H21  0.1+  0.1-    131002 113  0.0   0.1+
    
    Ephemeris:
    2013 TE                  a,e,i = 2.86, 0.57, 20                  q = 1.2289
    Date    TT    R. A. (2000) Decl.     Delta      r     Elong.  Phase     V
    2013 09 02    23 12 41.3 +35 21 19   0.4929  1.4065   136.1    29.8    21.2
    ...
    2013 09 17    23 30 04.4 +33 12 33   0.3807  1.3332   144.4    26.0    20.4
    ...
    2013 09 25    23 43 06.9 +29 47 36   0.3306  1.3007   150.4    22.4    19.9
    ...
    2013 10 01    23 55 11.9 +25 49 33   0.2988  1.2798   155.9    18.6    19.6
    2013 10 02    23 57 25.2 +25 02 01   0.2941  1.2766   156.9    17.9    19.5
    2013 10 03    23 59 42.1 +24 12 09   0.2895  1.2736   157.9    17.2    19.4
    ...
    2013 10 09    00 14 39.0 +18 24 55   0.2665  1.2571   163.9    12.8    19.1
    ...
    2013 10 17    00 37 38.1 +08 53 29   0.2488  1.2409   167.7     9.8    18.8
    ...
    2013 11 01    01 25 28.3 -09 38 33   0.2610  1.2289   151.9    22.4    19.3
    
    A. U. Tomatic                (C) Copyright 2013 MPC           M.P.E.C. 2013-T09
    

    Read MPEC 2013-T08 Read MPEC 2013-T10


    MPEC number:

    Enter an MPEC number in one of the following forms:

    • 1997-B01 (the full form)
    • J97B01 (the packed version of the full form)
    • B01 (the abbreviated form)